Location: Cahas Mountain Overlook
(37.0833°N, 80.1000°W)
Time: 21:57:48
(UTC-05:00)

Tiros 1 despin weight - Visible Passes

Search period start: 27 January 2022 00:00
Search period end: 06 February 2022 00:00
Orbit: 592 x 641 km, 48.2° (Epoch: 27 January)

Date Brightness Start Highest point End Pass type
(mag) Time Alt. Az. Time Alt. Az. Time Alt. Az.
27 Jan ? 18:28:22 10° WNW 18:31:52 21° N 18:35:15 11° NE visible
27 Jan ? 20:10:45 10° NW 20:12:17 17° NNW 20:12:17 17° NNW visible
28 Jan ? 18:45:00 10° NW 18:48:24 20° N 18:50:42 15° NE visible
28 Jan ? 20:26:46 10° NW 20:27:44 15° NW 20:27:44 15° NW visible
29 Jan ? 19:01:20 10° NW 19:04:56 22° N 19:06:12 20° NNE visible
29 Jan ? 20:42:43 10° NW 20:43:14 13° NW 20:43:14 13° NW visible
30 Jan ? 19:17:26 10° NW 19:21:23 27° NNE 19:21:44 27° NNE visible
30 Jan ? 20:58:43 10° NW 20:58:46 10° NW 20:58:46 10° NW visible
31 Jan ? 19:33:25 10° NW 19:37:21 37° NNE 19:37:21 37° NNE visible
01 Feb ? 18:08:03 10° NW 18:11:45 23° NNE 18:15:28 10° ENE visible
01 Feb ? 19:49:22 10° NW 19:53:03 51° NNW 19:53:03 51° NNW visible
02 Feb ? 18:24:06 10° NW 18:28:10 30° NNE 18:31:48 12° E visible
02 Feb ? 20:05:25 10° WNW 20:08:52 49° WNW 20:08:52 49° WNW visible
03 Feb ? 18:40:03 10° NW 18:44:27 45° NNE 18:47:46 17° E visible
03 Feb ? 20:21:42 10° WNW 20:24:50 32° WSW 20:24:50 32° WSW visible
04 Feb ? 18:56:00 10° NW 19:00:36 78° NE 19:03:54 19° ESE visible
04 Feb ? 20:38:31 10° W 20:40:59 18° WSW 20:40:59 18° WSW visible
05 Feb ? 19:12:07 10° WNW 19:16:37 56° SW 19:20:17 15° SE visible
